(142813) = 2002 UP38

Discovered at Anderson Mesa on 2002-10-31 by LONEOS.

Orbit

Orbit type: Main Belt

Note: WebGL enabled browser required.

epoch2024-03-31.0
epoch JD2460400.5
perihelion date2023-11-23.53152
perihelion JD2460272.03152
argument of perihelion (°)18.45355
ascending node (°)52.63319
inclination (°)5.41566
eccentricity0.2741753
perihelion distance (AU)1.8823737
Tisserand w.r.t. Jupiter3.4
ΔV w.r.t. Earth (km/sec)8.8
semimajor axis (AU)2.5934274
mean anomaly (°)30.31721
mean daily motion (°/day)0.23598950
aphelion distance (AU)3.304
period (years)4.18
P-vector [x]0.32525934
P-vector [y]0.85527725
P-vector [z]0.40336979
Q-vector [x]-0.94264511
Q-vector [y]0.25941952
Q-vector [z]0.21005169
absolute magnitude16.65
phase slope0.15
uncertainty0
referenceMPEC 2024-E179
observations used570
oppositions14
arc length (days)9218
first opposition used1998
last opposition used2024
residual rms (arc-secs)0.74
perturbers coarse indicatorM-v
perturbers precise indicator003Ek
first observation date used1998-12-17.0
last observation date used2024-03-13.0
computer nameMPCLINUX
JD of orbit computation2456909.057345
perihelion JD uncertainty (days)1.9212E-04
argument of perihelion uncertainty (°)7.4391E-05
ascending node uncertainty (°)6.4639E-05
inclination uncertainty (°)6.8710E-06
eccentricity uncertainty 7.2530E-08
perihelion distance uncertainty (AU)2.0865E-07
Minimum Orbit Intersection Distances (in AU)
for orbit epoch: 2460200.5, reference: E2024-B20
Mercury1.57445
Venus1.16214
Earth0.8965
Mars0.33952
Jupiter2.01067
Saturn6.72803
Uranus15.5958
Neptune27.2311

Observations

581 total observations over interval: 1998 12 17.31148 – 2024 03 13.122740
These data are available for download (format description).

Date (UT) J2000 RA J2000 Dec Magn Location Ref
1998 12 17.31148 06 40 53.12 +30 02 11.1 18.5   704 – Lincoln Laboratory ETS, New Mexico MPS 70005
1998 12 17.33473 06 40 51.77 +30 02 19.7 19.4   704 – Lincoln Laboratory ETS, New Mexico MPS 70005
1998 12 17.35786 06 40 50.44 +30 02 25.2 19.2   704 – Lincoln Laboratory ETS, New Mexico MPS 70005
1998 12 17.38091 06 40 49.05 +30 02 33.1 18.5   704 – Lincoln Laboratory ETS, New Mexico MPS 70005
1999 01 16.09944 06 13 14.04 +31 34 07.0 18.9   704 – Lincoln Laboratory ETS, New Mexico MPS 70005
1999 01 16.12144 06 13 13.17 +31 34 08.4 18.8   704 – Lincoln Laboratory ETS, New Mexico MPS 70005
1999 01 16.14418 06 13 12.15 +31 34 09.3 18.8   704 – Lincoln Laboratory ETS, New Mexico MPS 70005
1999 01 16.16620 06 13 11.35 +31 34 09.8 19.4   704 – Lincoln Laboratory ETS, New Mexico MPS 70005
1999 01 16.18826 06 13 10.34 +31 34 12.7 19.4   704 – Lincoln Laboratory ETS, New Mexico MPS 70005
2002 09 16.56212 03 21 22.98 +14 36 35.9 21.1   608 – Haleakala-AMOS MPS 70005
2002 09 16.57255 03 21 23.30 +14 36 37.8 20.6   608 – Haleakala-AMOS MPS 70005
2002 09 16.58275 03 21 23.69 +14 36 40.6 20.5   608 – Haleakala-AMOS MPS 70005
2002 10 31.39253 03 15 37.37 +16 22 47.4 18.1 R 699 – Lowell Observatory-LONEOS MPS 66348
2002 10 31.41358 03 15 36.27 +16 22 48.3   699 – Lowell Observatory-LONEOS MPS 66348
2002 10 31.43462 03 15 35.15 +16 22 50.1   699 – Lowell Observatory-LONEOS MPS 66348
2002 10 31.45560 03 15 34.01 +16 22 51.9   699 – Lowell Observatory-LONEOS MPS 66348
2002 11 04.22557 03 12 16.54 +16 27 13.9 17.6   644 – Palomar Mountain/NEAT MPS 66348
2002 11 04.29930 03 12 12.29 +16 27 19.2 17.7   644 – Palomar Mountain/NEAT MPS 66348
2002 11 04.36207 03 12 08.65 +16 27 23.4 17.8   644 – Palomar Mountain/NEAT MPS 66348
2002 11 05.30016 03 11 17.13 +16 28 24.3 18.1 R 699 – Lowell Observatory-LONEOS MPS 66348
2002 11 05.31858 03 11 16.05 +16 28 25.7   699 – Lowell Observatory-LONEOS MPS 66348
2002 11 05.33701 03 11 14.96 +16 28 27.1   699 – Lowell Observatory-LONEOS MPS 66348
2002 11 05.35543 03 11 13.84 +16 28 28.3   699 – Lowell Observatory-LONEOS MPS 66348
2002 11 06.24308 03 10 24.73 +16 29 25.6 18.8   704 – Lincoln Laboratory ETS, New Mexico MPS 66348
2002 11 06.25973 03 10 23.77 +16 29 26.4 18.6   704 – Lincoln Laboratory ETS, New Mexico MPS 66349
2002 11 06.27639 03 10 22.72 +16 29 27.0 19.3   704 – Lincoln Laboratory ETS, New Mexico MPS 66349
2002 11 06.29308 03 10 21.74 +16 29 28.3 18.8   704 – Lincoln Laboratory ETS, New Mexico MPS 66349
2002 11 06.30978 03 10 20.77 +16 29 29.4 18.8   704 – Lincoln Laboratory ETS, New Mexico MPS 66349
2002 11 10.23123 03 06 36.38 +16 33 32.0 17.9   704 – Lincoln Laboratory ETS, New Mexico MPS 66349
2002 11 10.24697 03 06 35.41 +16 33 33.4 18.3   704 – Lincoln Laboratory ETS, New Mexico MPS 66349
2002 11 10.26272 03 06 34.44 +16 33 34.3 18.4   704 – Lincoln Laboratory ETS, New Mexico MPS 66349
2002 11 12.35469 03 04 32.54 +16 35 43.7 18.3   644 – Palomar Mountain/NEAT MPS 66349
2002 11 12.37556 03 04 31.24 +16 35 44.5 18.3   644 – Palomar Mountain/NEAT MPS 66349
2002 11 12.39673 03 04 29.94 +16 35 45.6 18.5   644 – Palomar Mountain/NEAT MPS 66349
2002 11 25.21961 02 52 41.91 +16 50 36.5 18.8 V 291 – LPL/Spacewatch II MPS 68166
2002 11 25.24405 02 52 40.62 +16 50 38.7 18.8 V 291 – LPL/Spacewatch II MPS 68166
2002 11 25.26844 02 52 39.33 +16 50 40.6 18.8 V 291 – LPL/Spacewatch II MPS 68166
2002 11 27.30779 02 51 01.46 +16 53 40.2 18.3 R 699 – Lowell Observatory-LONEOS MPS 68166
2002 11 27.32391 02 51 00.71 +16 53 42.0   699 – Lowell Observatory-LONEOS MPS 68166
2002 11 27.33989 02 50 59.90 +16 53 42.1   699 – Lowell Observatory-LONEOS MPS 68166
2002 11 27.35590 02 50 59.09 +16 53 44.4   699 – Lowell Observatory-LONEOS MPS 68166
2002 12 02.22724 02 47 33.07 +17 02 02.5 19.0   704 – Lincoln Laboratory ETS, New Mexico MPS 68166
2002 12 02.24195 02 47 32.47 +17 02 04.0 19.1   704 – Lincoln Laboratory ETS, New Mexico MPS 68166
2002 12 02.25653 02 47 31.87 +17 02 05.5 19.1   704 – Lincoln Laboratory ETS, New Mexico MPS 68166
2002 12 02.27110 02 47 31.29 +17 02 06.8 19.1   704 – Lincoln Laboratory ETS, New Mexico MPS 68166
2002 12 02.28569 02 47 30.72 +17 02 09.8 19.2   704 – Lincoln Laboratory ETS, New Mexico MPS 68166
2002 12 05.22873 02 45 47.72 +17 08 07.7 19.2   704 – Lincoln Laboratory ETS, New Mexico MPS 68166
2002 12 05.24409 02 45 47.15 +17 08 09.1 19.1   704 – Lincoln Laboratory ETS, New Mexico MPS 68166
2002 12 05.25931 02 45 46.65 +17 08 10.5 18.8   704 – Lincoln Laboratory ETS, New Mexico MPS 68166
2002 12 05.27464 02 45 46.05 +17 08 12.4 19.1   704 – Lincoln Laboratory ETS, New Mexico MPS 68166
2002 12 10.09239 02 43 37.83 +17 19 47.2 19.0   644 – Palomar Mountain/NEAT MPS 68166
2002 12 10.11380 02 43 37.32 +17 19 50.7 18.9   644 – Palomar Mountain/NEAT MPS 68166
2002 12 10.13530 02 43 36.78 +17 19 54.5 19.4   644 – Palomar Mountain/NEAT MPS 68166
2002 12 10.15120 02 43 36.27 +17 19 56.9 18.9   704 – Lincoln Laboratory ETS, New Mexico MPS 68166
2002 12 10.16655 02 43 35.92 +17 19 58.9 19.1   704 – Lincoln Laboratory ETS, New Mexico MPS 68166
2002 12 10.18173 02 43 35.50 +17 20 01.9 19.2   704 – Lincoln Laboratory ETS, New Mexico MPS 68166
2002 12 10.19682 02 43 35.09 +17 20 03.5 19.2   704 – Lincoln Laboratory ETS, New Mexico MPS 68166
2002 12 10.21203 02 43 34.75 +17 20 06.5 19.1   704 – Lincoln Laboratory ETS, New Mexico MPS 68166
2002 12 27.15600 02 43 14.86 +18 20 58.5 19.5   644 – Palomar Mountain/NEAT MPS 71629
2002 12 27.17616 02 43 15.18 +18 21 04.0 19.2   644 – Palomar Mountain/NEAT MPS 71629
2002 12 27.19759 02 43 15.52 +18 21 09.3 19.0   644 – Palomar Mountain/NEAT MPS 71629
2003 01 08.11169 02 49 40.65 +19 21 55.5 19.1   704 – Lincoln Laboratory ETS, New Mexico MPS 70005
2003 01 08.12799 02 49 41.44 +19 22 01.1 19.3   704 – Lincoln Laboratory ETS, New Mexico MPS 70005
2003 01 08.14833 02 49 42.33 +19 22 08.2 19.4   704 – Lincoln Laboratory ETS, New Mexico MPS 70005
2003 01 08.16283 02 49 42.91 +19 22 12.7 19.2   704 – Lincoln Laboratory ETS, New Mexico MPS 70005
2003 02 01.09258 03 16 36.92 +21 53 34.6 19.3   704 – Lincoln Laboratory ETS, New Mexico MPS 71629
2003 02 01.10811 03 16 38.28 +21 53 41.3 20.7   704 – Lincoln Laboratory ETS, New Mexico MPS 71629
2003 02 01.12375 03 16 39.58 +21 53 47.2 20.3   704 – Lincoln Laboratory ETS, New Mexico MPS 71629
2003 02 01.15475 03 16 42.14 +21 54 01.4 20.4   704 – Lincoln Laboratory ETS, New Mexico MPS 71629
2004 04 14.37396 13 51 07.42 -07 39 37.8 21.3 V 691 – Steward Observatory, Kitt Peak-Spacewatch MPS 104283
2004 04 14.40067 13 51 05.88 -07 39 31.9 21.3 V 691 – Steward Observatory, Kitt Peak-Spacewatch MPS 104283
2004 04 14.42886 13 51 04.27 -07 39 24.9 21.2 V 691 – Steward Observatory, Kitt Peak-Spacewatch MPS 104283
2006 08 28.34152 01 06 43.08 -00 44 50.5 21.0   705 – Apache Point MPS 195351
2006 08 28.34484 01 06 43.05 -00 44 50.9 20.3 V 705 – Apache Point MPS 195351
2006 09 12.45029 01 01 38.96 -01 25 24.7 19.7 V 703 – Catalina Sky Survey MPS 178375
2006 09 12.45671 01 01 38.78 -01 25 27.6 19.1 V 703 – Catalina Sky Survey MPS 178375
2006 09 12.46315 01 01 38.53 -01 25 28.3 19.1 V 703 – Catalina Sky Survey MPS 178375
2006 09 12.46955 01 01 38.28 -01 25 29.7 20.1 V 703 – Catalina Sky Survey MPS 178375
2006 09 18.27486 00 57 59.43 -01 46 35.7 18.9 V 703 – Catalina Sky Survey MPS 179249
2006 09 18.28201 00 57 59.11 -01 46 37.6 18.9 V 703 – Catalina Sky Survey MPS 179249
2006 09 18.28918 00 57 58.82 -01 46 39.0 18.8 V 703 – Catalina Sky Survey MPS 179249
2006 09 18.29633 00 57 58.46 -01 46 41.8 18.5 V 703 – Catalina Sky Survey MPS 179249
2006 09 20.33587 00 56 29.49 -01 54 30.2 19.4 R 644 – Palomar Mountain/NEAT MPS 180927
2006 09 20.36283 00 56 28.20 -01 54 36.5 20.2 R 644 – Palomar Mountain/NEAT MPS 180927
2006 09 20.39234 00 56 26.82 -01 54 43.3 19.8 R 644 – Palomar Mountain/NEAT MPS 180927
2006 09 22.24565 00 55 01.47 -02 01 56.6 19.4   704 – Lincoln Laboratory ETS, New Mexico MPS 180927
2006 09 22.25695 00 55 00.85 -02 01 59.1 19.7   704 – Lincoln Laboratory ETS, New Mexico MPS 180927
2006 09 22.26825 00 55 00.34 -02 02 01.3 19.4   704 – Lincoln Laboratory ETS, New Mexico MPS 180927
